Regional Weather Roundup
Issued by NWS

Home | Current Version | Previous Version | Graphics & Text | Print | Product List | Glossary On
Versions: 1 2 3 4 5 6 7 8 9 10 11 12 13 14 15 16 17 18 19 20 21 22 23 24 25 26 27 28 29 30 31 32 33 34 35 36 37 38 39 40 41 42 43 44 45 46 47 48 49 50
000
ASUS45 KBOU 251307
RWRCO

WEATHER ROUNDUP FOR COLORADO
NATIONAL WEATHER SERVICE DENVER/BOULDER CO
700 AM MDT MON MAY 25 2015

NOTE: "FAIR" INDICATES FEW OR NO CLOUDS BELOW 12000 FEET WITH NO
SIGNIFICANT WEATHER AND/OR OBSTRUCTIONS TO VISIBILITY.

COZ001>005-013-030-031-251400-
...NORTHWEST COLORADO...

CITY           SKY/WX    TMP DP  RH WIND       PRES   REMARKS
CRAIG          LGT RAIN  44  41  89 CALM      30.00R
HAYDEN         CLOUDY    41  37  87 NE6       30.00R
MEEKER         CLOUDY    42  39  89 S3        30.00R
MOUNT WERNER   NOT AVBL
STEAMBOAT SPGS CLOUDY    38  37  93 SE3       30.01R
WALDEN         CLOUDY    34  30  86 S6        30.00S WCI  29
$$

COZ006>008-011-251400-
...WEST CENTRAL VALLEYS...

CITY           SKY/WX    TMP DP  RH WIND       PRES   REMARKS
GRAND JUNCTION CLOUDY    47  45  93 SE9       29.96S
MONTROSE       CLOUDY    45  42  89 SE5       30.02R
EAGLE          CLOUDY    37  37 100 W3        30.04R
RIFLE          CLOUDY    46  42  86 CALM      29.99R
DELTA          CLOUDY    48  46  91 MISG      30.00S
NUCLA          CLOUDY    45  43  93 SE5       30.02R
$$

COZ017>023-064>068-251400-
...SOUTHWEST COLORADO...

CITY           SKY/WX    TMP DP  RH WIND       PRES   REMARKS
DURANGO        CLOUDY    42  41  96 NE3       30.02S
CORTEZ         PTSUNNY   49  45  86 CALM      30.00R
PAGOSA SPRINGS CLOUDY    39  39 100 CALM      30.06R
TELLURIDE      CLOUDY    37  37 100 SE5       30.09R
WOLF CREEK PAS NOT AVBL
$$

COZ009-010-012-014-032>034-037-058>063-251400-
...CENTRAL COLORADO...

CITY           SKY/WX    TMP DP  RH WIND       PRES   REMARKS
ASPEN          PTSUNNY   37  35  92 CALM      30.02R
BUENA VISTA    PTSUNNY   40  37  90 NW3       30.00R
COPPER MTN     CLOUDY    28  23  80 W16G24    30.10R HAZE    WCI  17
BERTHOUD PASS  CLOUDY    21  14  73 NW21      30.08R WCI   6
COTTONWOOD PAS CLOUDY    37  32  81 CALM      30.04R
GUNNISON       CLOUDY    37  32  81 CALM      30.06R
KREMMLING      CLOUDY    37  36  93 CALM      30.02S
LEADVILLE      CLOUDY    31  29  92 N3        30.04R
MONARCH PASS   CLOUDY    28  27  93 MISG      30.18R
SALIDA         MOSUNNY   43  38  81 W6        30.05R
SUNLIGHT       FOG       32  32 100 CALM        N/A  VSB<1/4
WILKERSON PASS FOG       28  28 100 W12G18    30.07S VSB 1   WCI  18
$$

COZ069>075-251400-
...SAN LUIS VALLEY/SANGRE DE CRISTO MOUNTAINS...

CITY           SKY/WX    TMP DP  RH WIND       PRES   REMARKS
ALAMOSA        PTSUNNY   34  31  88 CALM      30.00R
LA VETA PASS   PTSUNNY  N/A N/A N/A MISG      30.05F
SAGUACHE       RAIN      39  36  87 N7        30.03S
$$

COZ035-036-038>040-251400-
...NORTHERN COLORADO FRONT RANGE...

CITY           SKY/WX    TMP DP  RH WIND       PRES   REMARKS
DENVER INTL AP MOSUNNY   46  41  82 W6        29.90R
DMNS CITY PARK   N/A     47  40  74 S3        29.90S
AURORA         MOSUNNY   45  41  87 SW1       29.91R
FRONT RANGE AP NOT AVBL
ERIE MUNI ARPT MOSUNNY   38  38  99 CALM      29.90S
BOULDER MUN AP SUNNY     45  41  87 CALM      29.89S
CENTENNIAL     MOSUNNY   46  41  82 W6        29.91R
BROOMFIELD     NOT AVBL
FORT COLLINS   MOSUNNY   46  43  87 SW3       29.90S
LONGMONT       MOSUNNY   47  42  81 CALM      29.91S
$$

COZ041-046-047-076>085-087-088-251400-
...PIKES PEAK/PALMER DIVIDE AND SOUTHERN FOOTHILLS...

CITY           SKY/WX    TMP DP  RH WIND       PRES   REMARKS
COLO. SPRINGS  PTSUNNY   49  39  68 NW3       29.92R
A. F. ACADEMY  MOSUNNY   48  36  62 N8        29.93R
ELLICOTT       NOT AVBL
FALCON         MOSUNNY   47  35  62 N7        29.94R
FORT CARSON    NOT AVBL
LIMON          PTSUNNY   45  43  93 W6        29.90R
MONUMENT HILL  NOT AVBL
TRINIDAD       MOSUNNY   43  38  82 NW8       29.90S
$$

COZ042>045-048>051-090-091-251400-
...NORTHEAST COLORADO...

CITY           SKY/WX    TMP DP  RH WIND       PRES   REMARKS
GREELEY ARPT   PTSUNNY   48  45  87 CALM      29.89S
AKRON          MOSUNNY   46  45  96 W12       29.86R
BURLINGTON     MOSUNNY   50  45  83 NW7       29.86R
WRAY           CLOUDY   N/A N/A N/A W7        29.82S
STERLING       PTSUNNY   50  46  87 NW8       29.84S
HOLYOKE        NOT AVBL
FORT MORGAN    PTSUNNY   47  45  92 W8        29.88R
$$

COZ086-089-092>099-251400-
...SOUTHEAST COLORADO...

CITY           SKY/WX    TMP DP  RH WIND       PRES   REMARKS
PUEBLO         MOSUNNY   46  43  89 W3        29.88R
LA JUNTA       MOSUNNY   49  46  90 W7        29.87R
LAMAR          SUNNY     48  46  93 SW6       29.85R
SPRINGFIELD      N/A     50  44  80 W7        29.85R
$$


USA.gov is the U.S. government's official web portal to all federal, state and local government web resources and services.